OPS 4682 DEB, 38445

Orbit data source: Space-Track

OPS 4682 DEB, 38445 is space debris in LEO originally from a launch on Sat, 03 Apr 1965 UTC launched from the Air Force Western Test Range (AFWTR). Debris objects in space refer to the collection of defunct objects orbiting the Earth. Examples of debris include non-operational satellites, rocket bodies, and fragments generated from explosions, collisions, or faulty payload assembly.

Loading next visibility...
Identifier
38445, 1965-027FA
Orbit
LEO
Country
Flag of USUS
Related business
Manufacturer
Unknown
Mission
Spacecraft
Bus & Motor
Unknown
Mass
Unknown
Launch date (UTC)
1965-04-03 (61 years ago)
Launch vehicle
Unknown
Launch site
Air Force Western Test Range (AFWTR)
Object type
Payload
Rocket body
Debris
Shape & HBR
Unknown shape, 0.1 m
Radar Cross Section
Medium (>0.1 m² and <1 m²)

Expand to show TLE details & history
Last TLE update: 19 hours ago

TLE from 19 hours ago
0 OPS 4682 DEB
1 38445U 65027FA  26207.40268066 -.00000037  00000-0 -15873-3 0  9992
2 38445  90.2409   7.4637 0032349  98.7919 261.6866 12.95422472609100
Epoch: 2026-07-26T09:39Z
TLE epoch observation values (Epoch: 2026-07-26T09:39:51.609Z)
Latitude
-0°
Longitude
-81.60246°
Altitude
1,286.612 km
Speed
7.211 km/s
True Right ascension
00h 29m 51s
True Declination
0° 00' 00"
Sunlit
Object was in daylight at epoch
Visualization orbit readout
Latitude
Unknown
Longitude
Unknown
Altitude
Unknown
Speed
Unknown
Apparent Right ascension
Unknown
Apparent Declination
Unknown
Sunlit
N/A
Visualization observer readout
Local Sidereal Time
18:08:19
Azimuth
Unknown
Elevation
Unknown
Doppler factor
Unknown
Orbital elements
Apogee altitude
1,301.972 km
Perigee altitude
1,252.444 km
Semi-major axis
7,655.345 km
Eccentricity
0.00323
Inclination
90.2409°
RAAN
7.4637°
Arg. of periapsis
98.7919°
True anomaly
261.32002°
Mean anomaly
261.6866°
Eccentric anomaly
261.50329°
Mean motion
3.24038 °/min
Orbital period
111.1 mins
BSTAR
-0.00015873
Loading maneuver chart data...
Computing Atmospheric mass density...
Loading historical data...
Loading historical data...
Loading historical data...
Loading historical data...
Loading historical data...
Loading historical data...
Loading historical data...

Documentation

Showing up to 5 results
|